TimeCST,TemperatureF,Dew PointF,Humidity,Sea Level PressureIn,VisibilityMPH,Wind Direction,Wind SpeedMPH,Gust SpeedMPH,PrecipitationIn,Events,Conditions,WindDirDegrees,DateUTC
12:15 AM,4.1,-2.7,73,29.83,10.0,West,10.4,17.3,N/A,,Clear,270,2014-02-23 06:15:00
12:35 AM,3.9,-2.9,73,29.83,10.0,West,11.5,-,N/A,,Clear,270,2014-02-23 06:35:00
12:55 AM,3.6,-3.3,73,29.84,10.0,West,9.2,20.7,N/A,,Clear,280,2014-02-23 06:55:00
1:15 AM,3.2,-3.6,73,29.84,10.0,West,11.5,19.6,N/A,,Scattered Clouds,270,2014-02-23 07:15:00
1:35 AM,3.0,-3.6,74,29.86,10.0,West,13.8,19.6,N/A,,Overcast,270,2014-02-23 07:35:00
1:55 AM,3.2,-3.6,73,29.86,10.0,West,13.8,19.6,N/A,,Overcast,270,2014-02-23 07:55:00
2:15 AM,2.8,-4.0,73,29.86,10.0,West,15.0,20.7,N/A,,Overcast,270,2014-02-23 08:15:00
2:35 AM,2.8,-4.0,73,29.87,10.0,West,15.0,23.0,N/A,,Overcast,280,2014-02-23 08:35:00
2:55 AM,2.7,-4.0,74,29.87,10.0,West,11.5,18.4,N/A,,Overcast,280,2014-02-23 08:55:00
3:15 AM,2.7,-4.0,74,29.87,7.0,West,12.7,21.9,N/A,,Overcast,280,2014-02-23 09:15:00
3:35 AM,2.3,-4.2,74,29.88,10.0,West,11.5,18.4,N/A,,Overcast,280,2014-02-23 09:35:00
3:55 AM,2.3,-4.2,74,29.88,10.0,West,9.2,18.4,N/A,,Overcast,270,2014-02-23 09:55:00
4:15 AM,2.1,-4.4,74,29.88,10.0,West,13.8,19.6,N/A,,Overcast,280,2014-02-23 10:15:00
4:35 AM,1.9,-4.7,74,29.89,10.0,West,12.7,17.3,N/A,,Overcast,270,2014-02-23 10:35:00
4:55 AM,1.4,-4.9,75,29.89,10.0,West,11.5,16.1,N/A,,Overcast,280,2014-02-23 10:55:00
5:15 AM,1.2,-4.9,75,29.89,10.0,West,4.6,-,N/A,,Overcast,270,2014-02-23 11:15:00
5:35 AM,1.2,-4.9,75,29.90,10.0,West,13.8,18.4,N/A,,Overcast,270,2014-02-23 11:35:00
5:55 AM,1.0,-5.1,75,29.90,7.0,West,10.4,19.6,N/A,,Overcast,270,2014-02-23 11:55:00
6:15 AM,0.5,-5.4,76,29.90,10.0,West,11.5,19.6,N/A,,Overcast,270,2014-02-23 12:15:00
6:35 AM,0.1,-5.4,77,29.90,10.0,West,10.4,-,N/A,,Overcast,270,2014-02-23 12:35:00
6:55 AM,-0.0,-5.8,77,29.90,10.0,West,10.4,17.3,N/A,,Overcast,270,2014-02-23 12:55:00
7:15 AM,-0.0,-5.8,77,29.91,7.0,West,10.4,-,N/A,,Overcast,280,2014-02-23 13:15:00
7:35 AM,0.3,-5.8,75,29.91,4.0,West,10.4,17.3,N/A,,Haze,280,2014-02-23 13:35:00
7:55 AM,0.5,-5.8,75,29.91,3.0,West,12.7,19.6,N/A,,Haze,270,2014-02-23 13:55:00
8:15 AM,0.9,-5.8,74,29.91,3.0,West,15.0,18.4,N/A,,Haze,280,2014-02-23 14:15:00
8:35 AM,1.4,-5.8,72,29.91,5.0,WNW,12.7,23.0,N/A,,Haze,290,2014-02-23 14:35:00
8:55 AM,1.8,-5.8,71,29.91,5.0,WNW,16.1,23.0,N/A,,Haze,290,2014-02-23 14:55:00
9:15 AM,2.8,-5.3,69,29.91,7.0,West,13.8,20.7,N/A,,Mostly Cloudy,270,2014-02-23 15:15:00
9:35 AM,3.4,-5.1,68,29.92,7.0,West,15.0,21.9,N/A,,Mostly Cloudy,280,2014-02-23 15:35:00
9:55 AM,4.5,-4.4,67,29.91,5.0,West,13.8,18.4,N/A,,Haze,270,2014-02-23 15:55:00
10:15 AM,5.4,-4.2,65,29.91,7.0,West,15.0,21.9,N/A,,Mostly Cloudy,280,2014-02-23 16:15:00
10:35 AM,6.6,-3.6,63,29.91,10.0,WNW,15.0,24.2,N/A,,Mostly Cloudy,290,2014-02-23 16:35:00
10:55 AM,8.1,-2.9,61,29.91,5.0,WNW,13.8,19.6,N/A,,Haze,290,2014-02-23 16:55:00
11:15 AM,8.8,-2.7,60,29.91,10.0,West,13.8,18.4,N/A,,Scattered Clouds,280,2014-02-23 17:15:00
11:35 AM,10.0,-2.0,58,29.90,10.0,West,11.5,21.9,N/A,,Scattered Clouds,270,2014-02-23 17:35:00
11:55 AM,11.3,-1.3,57,29.90,10.0,West,12.7,18.4,N/A,,Scattered Clouds,280,2014-02-23 17:55:00
12:15 PM,11.3,-1.3,57,29.89,10.0,West,15.0,27.6,N/A,,Mostly Cloudy,280,2014-02-23 18:15:00
12:35 PM,12.9,-0.6,55,29.89,10.0,West,12.7,19.6,N/A,,Mostly Cloudy,270,2014-02-23 18:35:00
12:55 PM,14.2,0.3,54,29.89,10.0,West,16.1,21.9,N/A,,Mostly Cloudy,260,2014-02-23 18:55:00
1:15 PM,13.3,-0.9,53,29.89,7.0,West,15.0,24.2,N/A,,Mostly Cloudy,270,2014-02-23 19:15:00
1:35 PM,14.2,0.3,54,29.88,7.0,West,24.2,29.9,N/A,,Overcast,270,2014-02-23 19:35:00
1:55 PM,14.2,-0.8,52,29.89,10.0,WNW,18.4,24.2,N/A,,Mostly Cloudy,290,2014-02-23 19:55:00
2:15 PM,14.5,-0.0,53,29.89,10.0,WNW,16.1,24.2,N/A,,Scattered Clouds,290,2014-02-23 20:15:00
2:35 PM,14.2,-1.1,51,29.89,7.0,West,20.7,27.6,N/A,,Scattered Clouds,280,2014-02-23 20:35:00
2:55 PM,13.5,-1.5,51,29.90,10.0,West,17.3,23.0,N/A,,Scattered Clouds,280,2014-02-23 20:55:00
3:15 PM,13.6,-0.8,53,29.90,10.0,West,16.1,25.3,N/A,,Mostly Cloudy,280,2014-02-23 21:15:00
3:35 PM,13.6,-0.2,54,29.90,10.0,West,18.4,25.3,N/A,,Overcast,280,2014-02-23 21:35:00
3:55 PM,13.8,0.5,56,29.90,10.0,West,19.6,24.2,N/A,,Overcast,280,2014-02-23 21:55:00
4:15 PM,14.0,1.0,56,29.90,10.0,West,12.7,20.7,N/A,,Overcast,280,2014-02-23 22:15:00
4:35 PM,13.8,1.0,57,29.91,10.0,WNW,11.5,27.6,N/A,,Overcast,290,2014-02-23 22:35:00
4:55 PM,13.6,1.6,59,29.91,10.0,WNW,17.3,24.2,N/A,,Overcast,290,2014-02-23 22:55:00
5:15 PM,13.6,2.3,61,29.91,10.0,West,11.5,21.9,N/A,,Overcast,280,2014-02-23 23:15:00
5:17 PM,12.2,1.4,62,29.91,10.0,West,12.7,21.9,N/A,,Overcast,280,2014-02-23 23:17:00
5:35 PM,13.5,2.1,61,29.92,10.0,WNW,13.8,20.7,N/A,,Overcast,290,2014-02-23 23:35:00
5:39 PM,12.2,1.4,62,29.92,10.0,WNW,12.7,20.7,N/A,,Overcast,290,2014-02-23 23:39:00
5:55 PM,13.1,2.3,62,29.92,10.0,WNW,11.5,18.4,N/A,,Overcast,290,2014-02-23 23:55:00
6:15 PM,13.1,2.3,62,29.92,10.0,West,15.0,21.9,N/A,,Overcast,280,2014-02-24 00:15:00
6:35 PM,13.1,2.1,62,29.92,10.0,WNW,12.7,21.9,N/A,,Overcast,290,2014-02-24 00:35:00
6:50 PM,12.7,2.3,63,29.92,10.0,West,13.8,19.6,N/A,,Overcast,280,2014-02-24 00:50:00
7:15 PM,12.6,2.8,65,29.93,10.0,WNW,12.7,-,N/A,,Overcast,290,2014-02-24 01:15:00
7:35 PM,12.2,3.4,68,29.93,10.0,WNW,12.7,17.3,N/A,,Overcast,290,2014-02-24 01:35:00
7:55 PM,11.8,3.2,68,29.93,10.0,WNW,6.9,-,N/A,,Overcast,300,2014-02-24 01:55:00
8:15 PM,12.0,3.2,68,29.94,7.0,WNW,9.2,16.1,N/A,,Overcast,300,2014-02-24 02:15:00
8:35 PM,11.8,2.8,67,29.94,10.0,NW,11.5,17.3,N/A,,Overcast,310,2014-02-24 02:35:00
8:55 PM,10.6,3.2,72,29.94,10.0,NNW,6.9,-,N/A,Snow,Light Snow,330,2014-02-24 02:55:00
9:15 PM,10.4,3.6,74,29.94,10.0,NW,11.5,16.1,N/A,Snow,Light Snow,310,2014-02-24 03:15:00
9:35 PM,9.9,3.2,74,29.94,10.0,NW,9.2,-,N/A,,Mostly Cloudy,310,2014-02-24 03:35:00
9:55 PM,10.0,3.7,76,29.94,7.0,WNW,9.2,-,N/A,Snow,Light Snow,300,2014-02-24 03:55:00
10:15 PM,9.5,4.1,79,29.94,3.0,West,6.9,-,N/A,Snow,Light Snow,280,2014-02-24 04:15:00
10:35 PM,9.1,3.4,77,29.94,5.0,West,10.4,-,N/A,Snow,Light Snow,280,2014-02-24 04:35:00
10:55 PM,9.1,3.0,76,29.95,7.0,WNW,8.1,-,N/A,Snow,Light Snow,300,2014-02-24 04:55:00
11:15 PM,9.1,2.5,74,29.95,10.0,WNW,9.2,-,N/A,,Mostly Cloudy,290,2014-02-24 05:15:00
11:30 PM,8.6,2.1,75,29.95,10.0,WNW,6.9,-,N/A,Snow,Light Snow,300,2014-02-24 05:30:00
11:55 PM,8.4,2.3,76,29.95,4.0,WNW,6.9,-,N/A,Snow,Light Snow,290,2014-02-24 05:55:00